Location: Carnoy
(49.9849°N, 2.7558°E)
Time: 07:03:19
(UTC+00:00)

STARLINK-1107 - Pass Details

Date: 24 January 2020
Orbit: 345 x 354 km, 53.0° (Epoch: 25 February)

Event Time Altitude Azimuth Distance (km) Brightness Sun altitude
Rises 16:58:47 0° 261° (W) 2,185 8.6 -5.1°
Reaches altitude 10° 17:00:49 10° 265° (W) 1,342 7.1 -5.4°
Maximum altitude 17:03:47 59° 346° (NNW) 425 3.0 -5.9°
Drops below altitude 10° 17:06:45 10° 67° (ENE) 1,346 4.9 -6.3°
Enters shadow 17:07:01 - 68° (ENE) 1,457 5.1 -6.3°
